Regional Weather Roundup
Issued by NWS

Home | Current Version | Previous Version | Graphics & Text | Print | Product List | Glossary On
Versions: 1 2 3 4 5 6 7 8 9 10 11 12 13 14 15 16 17 18 19 20 21 22 23 24 25 26 27 28 29 30 31 32 33 34 35 36 37 38 39 40 41 42 43 44 45 46 47 48 49 50
000
ASUS43 KLMK 292310
RWRKY
KENTUCKY REGIONAL WEATHER ROUNDUP
NATIONAL WEATHER SERVICE LOUISVILLE KY
700 PM EDT MON JUN 29 2015

NOTE "FAIR" INDICATES FEW OR NO CLOUDS BELOW 12,000 FEET
WITH NO SIGNIFICANT WEATHER AND/OR OBSTRUCTIONS TO VISIBILITY.

KYZ001>023-026-027-061>063-070>075-300000-
WESTERN AND SOUTH CENTRAL KENTUCKY

CITY           SKY/WX    TMP DP  RH WIND       PRES   REMARKS
PADUCAH        SUNNY     87  67  51 W7        29.83S HX  90
HENDERSON      SUNNY     81  64  57 NW13      29.82S
OWENSBORO      MOSUNNY   83  68  60 NW15      29.82S
HOPKINSVILLE   PTSUNNY   75  68  79 S3        29.84F
BOWLING GREEN  MOSUNNY   73  68  84 S7        29.86R
GLASGOW        CLOUDY    71  66  83 CALM      29.85S THUNDER
$$

KYZ024-025-028>034-038-045-046-053-300000-
NORTH CENTRAL KENTUCKY

CITY           SKY/WX    TMP DP  RH WIND       PRES   REMARKS
LOUISVILLE/SDF MOSUNNY   82  64  54 NW16G24   29.79R
LOUISVILLE/LOU MOSUNNY   82  65  56 W14       29.79S
FORT KNOX      MOSUNNY   80  65  59 W13       29.80R
$$

KYZ035>037-039>044-047>052-055>060-089>105-300000-
NORTHEAST KENTUCKY

CITY           SKY/WX    TMP DP  RH WIND       PRES   REMARKS
LEXINGTON      PTSUNNY   72  67  84 SW6       29.83S
COVINGTON      PTSUNNY   74  67  78 SW5       29.79S
FRANKFORT      TSTM      75  68  78 S9        29.80S
$$

KYZ054-064>069-076>088-106>120-300000-
SOUTHEAST KENTUCKY

CITY           SKY/WX    TMP DP  RH WIND       PRES   REMARKS
JACKSON        CLOUDY    74  65  73 CALM      29.88S THUNDER
LONDON         LGT RAIN  69  63  81 CALM      29.89R
SOMERSET       PTSUNNY   66  66 100 CALM      29.89R
MIDDLESBORO    MOSUNNY   80  64  59 S14       29.88F
MONTICELLO     CLOUDY    72  69  90 VRB3      29.91R
$$



USA.gov is the U.S. government's official web portal to all federal, state and local government web resources and services.